Wind_Speed
6 8 11 14 18 21 23 23 23 24 24 24 24 23 24 26 26 26 30 31 31 30 31 31 31 29 24 18 14 11 9 10 11 9 6 7 9 9 8 6 6 7 9 9 10 9 9 10 11 11 11 11 10 9 9 8 9 9 8 8 7 6 4 2 1 1 4 7 8 10 11 10 10 10 10 10 11 13 14 14 15 16 17 16 14
6 6 9 12 15 18 21 24 26 27 28 26 26 26 26 27 28 29 31 32 32 31 30 29 27 24 17 12 10 8 7 8 7 4 4 8 9 9 9 10 10 9 9 10 12 13 13 14 14 13 12 11 10 9 9 9 10 9 8 8 7 6 4 3 3 4 7 9 11 12 12 11 11 11 11 11 11 12 13 14 16 16 15 14 13
9 8 7 8 11 13 16 21 25 28 28 28 29 29 30 30 29 29 28 28 28 26 25 23 20 16 11 7 5 4 5 5 3 3 6 7 9 10 8 10 13 11 10 12 14 15 15 15 14 13 11 9 9 10 10 9 8 8 7 6 4 1 3 6 7 8 9 9 11 11 11 10 9 9 10 10 11 13 14 15 15 14 13 13 14
11 11 10 8 7 6 9 14 18 21 22 22 22 23 24 24 23 22 21 21 21 20 19 17 14 10 8 5 2 3 3 1 2 4 6 6 10 12 9 11 13 11 10 12 14 16 13 12 12 12 12 10 9 10 11 9 8 7 5 4 2 3 4 8 8 9 9 9 9 9 8 7 8 9 10 11 13 14 14 14 13 12 12 14 15
11 10 10 10 9 7 6 5 7 11 14 16 16 16 16 17 17 17 17 16 15 14 13 10 8 8 6 4 1 2 2 2 3 5 7 6 11 14 13 12 10 8 7 8 11 14 14 12 10 10 12 11 9 10 9 8 7 6 5 4 3 1 7 7 7 7 7 9 9 9 8 8 10 11 13 13 14 14 13 12 11 12 14 15 15
11 10 9 8 8 7 8 8 8 6 6 8 11 13 13 13 13 13 13 12 11 9 7 6 7 8 6 4 1 1 3 3 3 5 7 8 12 15 14 11 8 6 7 7 7 9 12 12 10 10 10 9 8 7 8 8 6 8 8 5 5 7 10 8 5 6 7 10 10 9 10 11 12 14 15 14 13 11 10 10 12 14 15 15 16
13 12 10 8 6 5 5 6 7 7 7 7 7 8 9 10 10 10 10 10 8 7 6 7 8 8 7 5 2 3 5 4 4 6 8 11 13 14 13 7 6 7 7 11 9 6 7 9 10 9 8 7 6 7 7 7 8 9 10 7 7 10 14 10 5 6 8 10 11 11 11 12 13 14 14 12 10 9 10 11 13 14 14 16 17
13 13 12 10 8 7 5 4 3 3 3 4 6 7 8 9 9 10 10 9 8 7 7 8 9 8 8 6 4 5 7 6 6 8 9 11 12 10 7 3 4 7 7 10 10 6 6 6 7 9 7 8 8 8 7 8 8 9 10 10 10 10 14 11 7 9 10 11 12 12 11 12 13 13 11 9 8 9 11 13 14 14 16 18 18
14 14 14 13 12 11 9 7 5 3 2 2 3 5 6 7 7 8 8 8 8 8 9 9 9 9 8 8 7 8 9 8 7 9 9 9 8 5 4 5 6 5 3 6 9 8 7 7 7 7 5 11 10 7 7 8 10 11 11 11 10 10 12 11 11 12 12 12 12 11 12 12 11 9 7 7 8 10 12 13 14 16 18 18 18
15 15 16 16 16 15 12 10 9 7 5 3 2 3 4 5 6 7 7 7 6 7 8 9 9 9 9 9 9 10 10 9 8 9 8 7 5 2 4 6 5 4 2 3 8 7 6 6 5 4 5 8 7 6 9 11 13 13 14 13 10 9 10 11 13 13 12 13 11 11 10 8 6 5 6 8 10 11 12 14 16 19 19 18 18
15 16 17 18 19 17 15 13 11 10 9 7 6 4 2 2 4 4 4 4 4 5 6 7 8 9 10 9 10 11 11 10 10 9 8 6 5 3 3 3 3 3 1 3 7 5 4 3 4 6 5 7 10 11 12 14 16 16 15 13 10 10 10 11 13 13 11 11 10 9 7 5 5 6 7 9 11 11 13 16 19 19 18 17 17
15 15 17 18 19 18 16 14 12 11 9 8 8 7 5 3 4 4 4 4 4 4 4 4 5 7 8 9 10 11 11 11 10 10 9 6 5 4 4 4 4 2 2 5 6 3 3 2 2 3 6 11 13 15 17 18 19 18 15 11 11 10 11 13 14 13 11 10 8 6 5 5 6 7 8 9 10 12 15 18 19 19 18 17 17
15 15 16 17 18 18 17 15 13 13 11 10 10 7 5 4 5 5 5 5 5 5 5 5 4 4 7 9 9 10 11 10 10 9 7 6 5 6 6 6 4 3 4 3 2 2 1 2 2 2 8 12 13 16 18 20 20 17 12 10 10 11 15 17 14 12 10 8 7 5 5 5 6 8 9 10 11 14 18 19 19 18 17 17 17
16 15 16 16 16 16 16 16 14 14 13 12 10 7 4 3 4 5 5 4 4 5 5 7 5 2 4 7 8 7 7 7 9 9 8 6 6 7 7 5 4 5 4 3 2 1 3 2 3 5 8 11 14 17 18 20 19 15 11 10 12 15 18 16 12 10 8 7 6 5 5 6 7 8 9 11 13 17 19 19 19 17 17 17 17
17 17 16 15 15 15 15 14 14 13 13 12 10 6 3 2 3 3 4 4 5 6 6 6 4 2 3 5 6 4 4 5 9 12 10 6 6 7 7 5 3 3 3 8 5 3 4 5 8 7 9 12 15 16 18 19 17 13 10 12 15 17 16 12 9 8 7 6 5 5 5 7 8 9 10 12 15 17 19 19 18 17 17 16 16
18 18 17 14 14 15 15 15 14 14 14 12 8 4 4 4 3 1 4 6 7 6 4 3 2 2 4 5 5 3 4 6 10 12 10 7 6 6 7 5 5 5 8 9 5 3 7 10 11 11 12 14 15 16 17 17 14 11 10 15 19 17 13 9 7 7 6 5 4 5 6 8 9 10 11 13 16 17 19 18 17 17 16 16 17
17 18 18 16 15 15 16 17 16 17 15 8 5 4 5 6 4 1 4 7 8 8 5 5 6 4 3 4 4 4 5 4 6 11 13 9 6 7 7 6 8 9 9 9 7 7 10 12 12 12 14 15 16 16 16 15 12 10 12 18 20 16 10 7 6 6 5 4 5 6 8 10 11 11 11 14 16 18 18 17 17 17 17 17 17
17 18 18 17 16 15 17 19 17 17 13 5 3 5 6 5 3 2 4 6 8 7 6 7 8 9 7 5 5 5 5 3 3 11 15 10 5 6 6 6 8 10 9 10 10 10 12 13 10 11 14 16 16 15 14 12 10 10 15 19 19 12 8 6 6 5 4 5 6 7 9 11 11 11 12 15 17 18 17 17 18 18 17 17 17
19 18 18 17 16 15 18 18 17 18 12 6 5 7 7 4 3 3 5 8 8 6 8 7 6 10 10 8 7 6 5 6 7 11 15 12 8 6 6 6 7 10 10 11 12 11 12 12 10 12 15 15 15 14 12 9 9 13 17 19 16 9 5 5 5 4 5 6 7 9 11 11 12 12 13 16 17 18 17 18 18 18 17 17 17
19 19 19 18 17 17 18 18 18 17 11 7 9 10 8 7 6 5 7 8 8 6 7 6 5 9 10 7 8 8 7 8 11 13 15 14 10 6 6 5 5 8 10 9 9 10 12 13 13 15 15 14 13 11 8 7 9 14 18 18 13 6 4 4 4 5 6 7 8 10 11 12 12 12 15 16 17 18 18 19 18 18 18 18 17
20 20 20 20 19 18 17 18 18 15 10 6 10 13 11 10 8 7 8 8 8 8 8 7 6 7 9 9 10 10 8 9 11 13 16 15 10 7 7 7 6 9 10 9 10 11 13 14 15 16 15 12 8 7 7 7 10 14 17 16 9 4 3 4 4 5 6 8 10 11 12 12 12 13 15 16 17 18 18 19 18 18 18 18 17
21 21 21 21 21 19 17 17 17 15 11 10 11 14 15 13 10 8 8 8 8 8 9 9 8 7 9 11 12 11 10 11 10 12 16 14 9 7 8 8 9 10 10 11 13 14 14 15 15 14 11 7 5 7 9 11 11 14 17 14 6 3 3 4 5 6 7 9 11 12 13 12 12 14 15 16 18 18 19 19 19 18 18 18 17
22 22 22 22 22 20 17 17 17 17 14 12 12 12 13 11 9 9 8 7 4 5 8 11 10 11 10 10 12 11 11 14 14 13 14 12 7 7 9 10 10 10 11 12 13 14 15 14 13 10 5 4 5 8 12 13 12 14 15 10 4 3 4 5 6 7 9 11 12 13 13 12 12 14 15 17 18 19 19 19 19 19 18 18 16
22 22 23 23 22 22 19 18 18 18 17 14 11 8 10 10 9 9 9 7 1 4 7 10 11 13 12 10 13 14 11 14 18 15 13 13 8 8 12 12 12 10 11 11 10 10 11 10 9 6 3 5 6 10 13 13 13 13 12 7 3 3 5 6 6 8 10 12 13 13 13 11 12 14 16 17 18 19 19 19 19 19 18 17 16
22 22 23 24 23 23 21 20 20 19 17 14 10 8 10 12 13 10 8 6 2 5 6 8 10 13 13 11 13 16 13 12 17 16 12 14 12 11 12 13 14 10 10 8 7 5 7 6 8 5 2 7 9 12 13 13 12 11 9 4 2 4 5 6 7 9 11 13 13 14 13 11 12 14 16 18 18 19 19 19 19 19 18 17 16
23 22 23 24 24 23 22 22 22 18 14 13 12 11 12 11 9 7 6 7 7 7 6 5 7 11 11 12 14 15 13 11 16 17 13 15 15 12 10 12 14 11 9 8 6 2 3 6 8 5 5 10 12 12 12 11 10 9 6 3 3 5 6 6 7 10 12 13 14 14 13 12 13 15 16 18 18 18 19 19 19 19 18 17 16
23 23 23 23 24 24 23 23 22 19 17 16 16 16 15 13 11 9 5 8 10 9 10 7 6 9 10 12 14 15 15 13 14 17 15 15 14 12 10 12 13 11 10 8 6 2 4 7 7 6 10 12 12 11 11 9 8 6 4 2 3 5 5 6 8 10 12 13 14 14 13 13 14 16 17 18 18 19 19 20 19 19 19 18 17
23 23 23 23 24 24 24 24 23 21 20 20 20 20 19 16 13 12 11 9 6 7 11 11 9 10 10 11 13 15 18 18 16 17 18 16 14 13 12 13 13 11 9 8 7 8 10 9 8 12 14 13 12 11 9 6 5 3 2 2 3 5 5 6 9 10 11 13 14 14 13 14 15 17 18 18 18 19 19 20 19 20 20 19 19
22 23 23 23 24 25 25 25 24 24 23 22 23 24 23 20 17 15 14 11 6 6 9 9 10 10 9 9 11 14 15 16 16 18 19 17 15 14 14 16 15 13 11 10 10 11 11 11 14 17 17 14 11 9 6 4 3 2 1 2 4 5 5 7 8 10 11 14 14 13 13 14 16 17 18 18 18 19 19 20 20 20 21 21 20
21 22 22 23 24 25 26 25 25 26 25 24 24 25 25 23 21 19 15 12 10 10 8 7 8 8 7 6 8 11 12 13 13 15 17 16 16 16 17 19 19 18 15 13 14 14 15 17 19 19 16 12 9 5 3 2 1 1 1 3 4 5 6 7 8 10 12 14 13 13 13 14 17 18 18 18 18 19 20 20 20 21 21 22 21
21 21 22 23 23 25 26 26 26 26 27 26 26 26 27 25 23 22 19 16 14 12 10 9 8 7 8 6 5 7 9 11 12 13 15 16 16 17 18 19 21 21 18 16 17 18 19 20 19 17 13 8 4 2 2 2 1 1 2 4 5 6 6 7 8 11 12 13 13 13 13 15 17 18 18 18 18 19 20 20 21 22 22 22 22
20 20 21 22 23 24 26 27 27 27 27 28 28 27 27 26 25 23 22 21 19 17 15 13 11 9 10 8 5 5 8 9 11 13 13 14 15 15 15 16 17 18 18 16 16 17 18 18 15 11 6 2 2 3 3 2 1 1 3 4 6 7 6 7 10 11 12 12 12 13 13 15 17 18 18 18 19 19 20 21 21 22 23 24 23
21 20 20 21 22 23 25 27 27 27 27 28 28 29 28 27 26 24 24 23 22 21 20 18 17 15 13 12 10 8 7 8 10 11 11 12 12 13 12 11 11 11 12 12 13 13 13 10 6 2 2 4 5 4 3 2 2 2 3 5 7 7 7 8 10 12 12 11 12 12 13 15 16 17 18 19 20 20 21 21 21 22 23 25 25
21 20 20 20 21 22 24 26 27 28 27 27 28 28 28 28 27 25 24 23 23 23 23 22 21 20 19 17 15 13 11 10 8 8 8 8 9 10 10 9 8 7 8 8 7 7 4 1 4 5 6 6 5 4 3 3 2 2 4 6 7 7 7 9 10 11 11 10 11 12 13 15 16 17 19 20 21 21 22 22 21 21 22 24 25
21 20 20 20 20 21 23 25 27 27 28 27 28 28 28 28 27 27 25 24 23 23 23 23 23 23 22 22 20 19 17 15 14 12 9 8 7 6 6 5 4 4 5 5 4 4 5 7 8 6 6 6 5 4 4 3 3 4 5 6 7 7 9 10 10 10 10 10 11 12 13 14 15 16 19 20 21 21 22 22 22 20 21 22 24
21 20 20 19 20 20 22 24 25 27 27 27 28 28 28 28 27 27 27 26 24 23 23 23 23 23 23 23 22 22 21 20 19 17 14 13 12 11 10 9 9 9 9 9 8 7 8 9 7 5 5 5 4 4 4 4 5 6 6 6 7 8 10 10 10 9 9 10 11 12 13 13 14 16 19 20 21 21 21 22 22 20 19 20 22
20 20 20 19 19 19 21 23 25 26 27 27 28 28 28 28 27 27 27 27 26 25 23 23 23 23 22 22 22 22 22 22 21 21 19 18 18 16 15 15 14 12 12 11 9 8 8 7 6 5 5 5 4 4 5 5 6 6 6 6 7 9 10 9 9 9 10 11 10 11 12 13 14 16 18 19 20 21 21 22 23 21 18 18 20
20 20 20 20 19 19 20 21 23 25 26 26 27 28 28 28 28 27 27 27 27 26 25 24 23 22 21 21 21 21 21 21 21 21 21 21 20 19 19 18 18 14 12 11 8 9 8 5 6 6 5 4 3 4 5 5 5 6 6 6 7 8 8 8 9 10 11 10 8 9 12 13 14 16 17 17 18 19 20 22 23 23 19 17 18
19 19 20 20 19 19 19 21 22 23 24 25 26 27 27 28 28 27 27 26 26 26 26 26 24 22 22 21 20 20 20 20 20 20 20 20 20 19 18 18 17 14 12 11 8 8 7 5 5 5 5 5 3 4 5 4 4 5 5 5 6 7 7 8 10 11 10 8 7 7 10 12 13 14 16 18 19 19 20 21 23 25 23 19 17
18 19 19 20 19 19 19 20 21 22 23 24 25 26 27 27 27 27 27 26 26 25 25 25 25 24 24 23 21 21 20 20 20 20 19 19 18 17 16 16 14 12 11 10 8 7 6 6 5 5 4 3 3 3 4 4 4 4 5 6 5 7 7 8 10 11 9 8 8 7 8 11 12 13 16 17 18 18 19 20 22 25 26 23 20
18 18 18 19 19 19 19 20 21 21 22 23 24 25 26 26 27 27 27 26 26 25 25 24 24 24 24 24 23 22 22 21 20 20 19 18 17 16 15 14 13 12 10 9 8 7 7 6 5 5 4 3 3 3 4 4 4 4 5 5 6 7 7 8 10 10 9 8 7 8 9 10 11 13 15 17 17 17 16 17 20 22 23 25 23
19 19 19 19 19 19 18 19 20 21 21 21 22 23 25 26 26 26 26 26 26 25 25 24 24 24 24 24 24 23 22 22 21 20 19 18 17 16 15 14 13 13 11 10 9 9 8 7 6 6 5 4 4 4 4 4 5 5 5 4 5 6 6 6 7 8 8 7 7 8 9 10 10 11 12 15 15 14 15 16 18 20 21 22 22
19 20 20 19 18 18 18 18 19 20 20 20 21 22 23 24 25 25 25 26 26 26 25 24 24 23 23 23 23 23 22 21 20 20 19 18 17 16 15 14 14 13 12 11 10 9 8 7 6 6 5 4 5 5 5 5 5 5 5 4 4 5 6 6 6 7 7 7 7 8 10 10 10 10 10 11 12 13 15 16 17 18 19 19 20
17 20 21 20 19 18 18 18 18 19 20 19 20 21 21 22 23 24 24 25 26 26 25 24 24 23 22 22 22 22 21 21 20 19 18 17 17 16 15 14 14 13 12 12 11 9 8 7 7 6 5 5 5 5 6 6 6 5 5 5 4 5 6 6 6 7 7 7 8 9 10 10 10 11 10 10 12 14 14 15 16 17 17 18 20
13 16 18 20 20 19 18 18 18 19 19 19 19 19 20 20 21 22 23 24 24 25 25 25 24 23 22 22 21 21 21 21 20 19 19 18 17 16 15 14 13 12 12 11 10 9 8 8 8 7 6 6 6 6 7 7 7 7 6 6 6 5 6 6 6 5 6 7 8 9 10 11 11 11 11 12 11 11 12 13 15 17 18 19 20
9 11 13 16 18 19 18 18 19 19 18 18 18 18 19 19 20 21 21 22 23 23 24 24 24 23 22 21 21 20 20 20 20 19 19 18 17 16 15 14 13 13 11 10 10 9 9 9 9 9 8 7 8 8 8 8 8 8 7 7 7 6 5 5 5 5 6 7 8 10 10 12 12 11 12 12 10 10 11 12 14 16 19 20 20
6 7 9 10 13 16 17 18 18 18 18 17 17 17 17 19 19 20 20 21 22 21 21 22 23 23 23 22 21 20 19 19 19 19 19 18 18 17 16 15 14 14 13 12 12 11 10 11 11 10 9 9 9 9 9 8 8 8 7 7 7 7 7 5 6 7 7 8 9 10 10 11 12 12 12 10 9 12 12 11 13 15 16 19 19
5 4 6 6 7 11 13 16 17 18 17 17 17 17 17 18 19 19 17 15 16 18 19 20 21 22 23 22 21 20 19 19 18 18 18 18 18 17 16 16 15 14 14 14 15 14 13 14 13 13 12 12 11 11 11 10 9 8 8 8 7 7 7 7 7 7 7 8 8 9 9 10 10 10 11 11 10 11 13 12 13 14 15 18 18
7 4 3 3 3 6 9 12 14 16 17 17 16 16 17 18 18 18 17 12 11 14 16 18 19 19 21 21 21 20 19 18 18 18 18 17 17 17 16 16 15 15 16 16 16 16 16 15 15 15 14 14 14 13 12 12 11 10 9 9 9 8 8 7 7 7 7 7 8 8 8 8 9 9 11 12 11 10 12 12 12 13 15 18 18
9 7 4 2 1 2 5 8 11 13 15 16 15 15 16 18 18 18 16 13 10 12 15 15 16 16 18 19 19 20 20 19 18 18 18 18 17 17 17 16 16 17 17 17 17 17 17 17 17 16 16 16 16 15 14 14 13 12 12 11 11 11 10 9 9 9 9 10 11 11 9 8 9 11 13 13 12 12 12 11 12 13 15 16 17
12 10 8 6 4 3 2 4 7 10 12 14 14 15 15 17 19 15 12 12 11 13 14 13 13 14 15 16 17 18 19 20 20 19 19 19 18 18 17 17 17 17 18 17 18 18 18 18 18 17 17 17 17 17 16 16 15 14 14 13 13 13 13 12 12 11 12 12 14 14 12 9 9 12 14 15 15 15 13 13 14 14 14 15 15
Wind_Direction
165 190 207 217 220 220 221 220 220 224 225 227 230 233 237 244 249 251 260 268 272 272 271 272 273 274 277 282 289 285 289 321 325 328 358 52 63 61 67 65 42 45 62 67 69 80 89 94 95 92 88 83 83 82 84 94 98 97 90 86 78 62 49 42 37 240 242 261 273 283 290 291 294 297 298 296 296 297 297 298 299 301 302 302 303
130 169 196 207 214 219 224 227 227 231 233 235 237 239 240 242 249 254 259 264 268 269 269 268 267 269 271 276 283 283 303 324 327 352 71 92 73 61 73 79 68 63 66 70 77 82 85 86 85 81 78 75 78 78 80 87 93 90 78 71 49 33 31 1 331 297 280 281 285 290 302 306 301 298 299 300 299 300 301 300 300 300 301 304 308
94 111 143 178 198 212 222 227 231 234 237 240 243 245 247 248 251 255 258 261 262 263 263 261 261 261 262 265 270 300 331 338 357 58 105 100 65 54 71 85 76 69 71 83 89 87 83 76 74 69 63 66 76 79 76 81 89 80 71 62 20 8 351 328 315 313 307 300 301 304 308 310 308 310 310 308 307 305 303 300 300 301 305 310 311
79 87 97 115 145 179 206 217 224 228 231 235 237 240 242 243 245 247 249 253 257 258 257 255 254 247 240 224 226 334 355 30 63 88 114 101 67 62 69 76 72 71 78 94 101 97 86 69 66 64 55 53 71 80 73 70 72 60 54 26 10 179 264 315 326 326 324 316 315 318 315 319 324 325 319 313 309 305 303 301 303 307 313 314 311
69 75 80 86 93 99 114 152 188 206 218 223 224 225 226 228 230 234 240 246 250 251 249 243 230 212 205 195 209 14 72 121 100 104 125 108 77 75 75 68 63 67 71 94 114 102 86 73 64 62 56 48 58 68 58 51 51 34 12 353 23 206 269 301 338 336 341 332 321 318 313 317 323 324 320 313 309 306 305 307 312 317 315 313 313
60 62 68 72 76 81 82 86 97 121 163 195 208 213 216 219 220 225 229 231 229 230 224 208 193 191 199 209 241 114 148 152 126 116 132 120 93 89 85 74 63 58 36 45 91 86 74 73 67 67 61 45 44 36 26 26 20 4 359 351 348 340 312 302 328 342 347 338 327 317 311 311 316 318 318 313 310 309 313 318 320 316 314 316 320
57 58 61 63 64 64 66 73 78 86 100 121 150 174 187 194 199 201 201 201 199 196 187 187 194 205 217 225 230 181 179 176 145 122 130 124 107 99 91 85 87 80 43 43 52 43 56 73 69 63 50 29 14 353 354 2 1 360 3 3 347 349 341 317 297 338 343 337 331 321 315 315 316 316 316 314 315 319 324 322 318 317 321 327 330
62 62 61 62 61 58 54 51 53 70 93 110 130 147 160 166 173 177 183 190 193 194 195 204 214 224 232 232 228 196 189 187 154 127 127 122 111 99 84 88 96 82 63 61 51 34 52 67 62 52 24 347 339 335 340 350 0 3 0 3 357 351 347 330 306 332 337 329 327 323 319 318 318 317 317 320 326 329 326 321 321 328 333 335 338
69 68 67 66 64 64 60 58 59 62 91 147 164 171 177 180 184 190 198 205 209 213 216 221 228 236 239 233 222 198 190 192 163 131 131 126 114 76 53 70 85 90 84 71 60 63 67 68 72 66 353 320 324 327 342 358 360 356 351 351 351 350 349 335 320 330 329 324 325 324 321 320 321 320 328 335 337 330 326 328 334 339 340 342 346
72 72 70 68 67 67 67 68 70 75 82 97 132 173 192 204 209 214 216 217 215 217 221 226 232 237 234 226 212 197 191 192 175 140 135 141 130 79 59 75 101 132 143 61 70 72 65 88 83 43 295 312 351 355 353 356 351 347 344 341 337 343 345 331 319 325 325 324 330 330 329 329 332 340 350 346 337 332 334 341 344 345 346 349 351
71 71 69 67 66 67 68 71 71 72 73 74 78 85 107 175 195 198 197 194 194 203 212 215 223 226 225 218 203 196 193 193 185 160 149 152 148 141 98 101 152 148 121 100 84 59 25 57 36 12 325 347 11 2 356 351 348 343 340 338 336 340 338 329 323 326 330 336 342 346 351 355 2 3 355 344 337 340 346 349 349 349 351 353 354
69 68 67 65 65 64 64 65 64 59 59 69 72 71 76 100 123 124 126 128 136 147 159 172 193 203 206 204 200 198 192 194 195 181 169 157 155 159 124 126 166 173 145 124 85 33 13 12 25 31 328 341 350 347 350 347 344 339 337 336 338 340 333 333 334 340 346 353 0 8 18 16 14 3 349 344 346 352 354 353 352 353 355 357 358
66 66 66 65 64 63 62 61 59 53 49 56 56 58 73 90 103 95 102 120 133 142 153 151 151 173 185 190 197 198 192 195 196 188 169 150 157 153 126 126 170 202 179 147 49 22 146 214 235 249 305 328 338 339 343 340 339 336 333 333 340 340 335 339 345 352 360 8 19 24 22 17 8 355 349 352 359 360 356 353 353 356 360 1 359
64 63 66 66 62 61 64 62 58 55 49 42 36 37 63 110 117 89 87 105 142 156 159 157 156 162 184 195 197 195 189 188 180 170 155 148 157 157 149 153 192 189 184 274 298 81 152 214 316 301 308 326 333 336 337 335 336 334 329 336 344 341 339 345 354 2 14 26 31 25 17 9 1 355 359 4 6 1 356 353 356 1 4 2 357
63 62 65 67 59 54 60 59 57 56 47 36 26 22 43 100 128 111 122 139 161 148 123 134 150 136 161 198 196 189 184 198 192 171 155 156 159 169 188 190 201 196 239 284 252 179 231 287 327 321 318 326 330 333 334 334 334 331 331 345 349 345 347 355 5 17 35 40 28 16 9 1 358 1 7 10 8 1 356 355 359 4 4 358 358
63 62 66 68 58 51 55 57 58 52 45 39 26 11 15 21 52 118 189 189 186 172 136 133 173 143 140 167 178 189 186 202 211 188 169 174 166 180 210 186 170 225 267 277 252 250 279 291 308 316 321 321 324 327 328 332 331 328 338 352 352 351 355 3 20 39 46 37 17 5 1 358 360 5 11 12 7 0 357 357 1 4 2 359 3
61 63 67 69 60 54 58 59 55 49 47 46 19 347 351 3 23 9 225 210 209 213 204 203 223 215 170 172 187 201 178 169 207 193 183 191 183 182 210 200 185 214 247 259 269 296 299 295 299 310 315 313 317 320 323 330 328 328 345 353 353 355 359 17 43 48 41 24 6 360 358 357 0 7 13 12 6 0 357 358 2 3 1 3 7
58 60 64 67 60 58 63 61 54 53 53 36 3 340 338 352 356 314 254 233 228 224 222 214 210 207 205 207 207 202 189 207 222 180 182 193 191 189 218 242 220 212 218 236 259 283 290 288 290 301 306 307 313 316 323 328 325 336 352 354 354 357 4 36 49 38 31 10 360 356 356 358 2 12 16 11 5 0 358 359 3 3 3 6 8
56 58 62 65 63 62 65 62 57 61 55 5 348 334 326 327 316 284 259 260 260 244 235 237 206 194 204 212 210 206 199 235 235 184 181 183 183 210 234 259 245 224 215 228 256 274 283 290 292 300 301 304 311 316 324 328 331 346 353 351 351 358 15 47 41 23 16 359 354 354 356 360 7 16 17 10 5 0 359 1 3 3 6 8 9
55 56 60 62 61 63 64 61 58 60 57 13 338 329 329 322 314 288 264 263 269 256 228 230 221 196 196 211 218 210 194 214 221 196 186 181 187 216 224 237 241 233 230 238 267 271 275 286 290 297 297 298 310 316 327 332 336 348 349 347 351 1 29 45 31 13 6 351 349 352 356 2 11 20 16 10 4 1 1 3 4 5 9 9 10
54 53 58 61 60 62 61 60 61 58 61 36 343 332 334 329 322 297 269 255 250 238 213 210 230 203 187 209 217 206 190 197 210 197 191 191 206 227 216 226 230 238 245 251 271 271 273 280 285 293 293 294 314 326 338 336 333 345 348 349 353 5 26 27 17 8 356 345 347 353 357 3 16 22 16 9 4 2 3 5 5 7 9 10 11
53 51 54 59 61 64 61 60 65 63 54 37 10 349 340 347 351 329 288 264 253 234 216 211 221 196 191 212 203 190 180 183 197 194 195 196 205 224 227 237 244 257 257 253 266 274 279 284 289 292 290 301 329 340 342 335 333 344 347 349 350 1 18 16 10 360 348 342 347 353 357 6 20 23 15 9 5 4 6 6 6 7 10 10 11
52 51 52 56 59 63 63 59 61 64 56 40 31 7 348 358 8 355 328 296 268 219 212 210 206 187 189 204 190 188 180 181 194 190 194 191 179 213 230 237 249 268 262 257 270 280 287 289 292 290 292 327 331 336 339 334 338 345 345 348 345 354 12 13 5 351 343 342 348 353 358 10 23 22 14 8 5 6 8 6 6 8 10 10 10
52 51 51 54 57 60 63 60 58 61 60 50 44 27 8 4 2 5 356 337 285 191 203 207 203 185 185 194 195 202 187 178 189 186 190 191 184 218 229 227 232 257 260 261 273 283 299 290 275 272 294 331 328 334 337 336 341 345 347 354 341 352 8 10 1 345 342 344 349 354 0 13 22 20 14 9 7 7 8 7 8 10 11 11 11
52 51 51 53 55 57 59 61 60 59 58 53 45 47 43 23 8 7 2 7 97 157 183 208 204 185 185 192 195 201 191 178 183 180 185 194 198 217 229 220 216 238 252 259 275 290 316 273 239 234 294 324 329 334 335 337 343 346 352 3 344 354 7 5 353 342 345 347 351 356 3 14 20 18 13 10 8 8 9 9 12 12 13 13 13
52 51 51 52 53 55 55 58 63 66 68 66 57 58 71 70 54 33 4 22 70 115 144 185 197 186 191 200 202 205 202 189 183 183 188 196 197 204 222 217 212 228 236 256 296 328 306 248 221 229 298 320 329 332 333 337 344 347 357 12 348 353 1 356 344 342 349 350 352 360 6 13 18 18 14 10 8 9 11 13 15 16 16 17 16
52 52 52 52 53 53 54 55 60 67 70 69 64 63 73 87 95 92 64 41 53 82 105 122 160 173 186 203 209 212 212 204 195 197 201 199 193 194 212 217 217 231 230 251 284 212 222 224 220 272 311 323 327 328 331 340 345 350 9 17 345 352 357 347 341 345 354 352 354 2 9 15 19 18 15 11 9 11 15 17 18 19 20 20 18
53 53 53 53 52 52 53 53 54 59 61 62 61 61 68 78 91 99 96 83 63 63 82 98 127 152 174 196 202 206 212 213 210 209 211 209 198 193 210 225 231 242 237 242 240 204 212 228 261 305 321 322 320 324 332 345 347 357 25 3 344 351 354 345 342 348 356 355 357 7 13 18 21 20 17 12 11 15 19 20 22 23 22 22 21
53 54 54 54 53 53 52 52 51 53 55 57 58 58 63 72 79 86 97 106 103 77 77 89 105 132 164 189 196 202 211 214 211 208 212 217 211 204 215 231 240 248 244 234 222 213 230 262 294 313 318 312 313 323 337 354 357 17 34 348 347 352 351 346 346 350 357 359 2 11 17 22 24 22 18 14 15 18 22 23 23 25 24 24 24
52 55 56 56 54 54 53 51 50 51 52 54 56 57 59 65 73 78 87 96 89 85 88 83 86 100 119 152 186 199 210 215 213 210 215 221 222 218 224 234 240 245 245 234 228 238 261 282 299 307 304 302 313 331 359 18 20 44 353 337 340 349 352 350 352 353 359 4 7 15 20 25 28 25 20 17 19 22 24 25 25 26 25 25 26
49 54 57 58 57 56 55 52 50 51 52 53 55 56 58 61 68 74 80 84 82 83 81 75 77 73 76 102 158 190 210 219 222 224 226 229 229 228 232 237 239 242 246 242 240 249 265 281 293 296 293 301 328 19 56 53 66 34 331 327 336 349 357 357 360 358 3 11 14 19 24 29 30 26 23 21 22 24 26 27 26 25 25 25 26
47 52 57 59 59 58 57 55 52 51 52 53 54 56 58 59 63 69 75 79 80 79 77 77 80 76 76 89 116 161 198 213 221 227 230 230 228 227 228 230 234 238 243 245 249 257 269 279 284 284 291 333 53 79 81 72 56 3 325 327 337 353 6 3 4 3 8 19 22 25 30 32 31 29 27 27 26 26 27 28 28 25 25 26 26
47 49 55 59 60 61 59 58 55 52 53 54 54 55 57 59 60 65 71 75 76 77 78 79 80 82 84 88 97 118 150 178 198 209 213 215 214 217 219 224 229 235 245 254 260 266 271 273 270 269 53 72 84 79 73 65 38 354 333 336 346 360 13 10 10 12 15 22 27 32 37 35 32 30 33 33 30 28 27 28 28 26 25 26 27
48 47 52 58 61 62 62 60 58 55 54 55 55 55 57 59 61 63 67 71 74 75 77 78 80 83 85 87 91 95 104 119 139 158 173 186 197 207 214 222 230 239 252 254 253 252 239 156 90 84 80 76 70 66 64 58 23 349 348 349 354 4 16 19 17 18 20 27 37 41 40 37 33 34 38 38 34 30 26 26 26 26 25 25 28
49 48 49 56 60 63 64 63 61 59 56 55 57 56 56 58 61 63 64 67 70 73 75 76 78 81 83 85 87 89 91 95 100 106 113 126 143 159 168 178 184 193 200 181 159 144 116 96 83 77 80 72 59 61 59 38 4 353 355 356 359 8 20 26 25 27 30 36 50 50 44 40 37 38 41 38 34 30 26 23 22 23 23 23 27
49 48 48 53 58 61 64 65 63 61 59 57 57 58 57 58 60 63 65 66 67 70 73 74 76 77 80 83 85 88 89 91 94 95 98 102 105 110 116 119 123 126 128 127 117 99 89 91 93 80 72 73 62 54 38 17 8 1 2 3 5 14 24 28 31 41 48 50 54 53 47 43 39 41 42 36 32 30 26 22 18 18 20 21 22
48 48 47 50 56 60 64 66 65 63 61 59 58 59 59 58 59 62 65 67 67 68 69 71 73 75 77 80 82 85 87 89 91 93 95 96 97 100 103 103 104 97 90 93 93 85 80 83 91 83 69 68 50 30 27 21 16 13 16 12 9 18 26 31 42 57 62 63 61 57 54 48 42 43 41 35 30 28 25 22 18 16 17 19 18
50 47 47 48 52 57 62 66 66 65 63 60 60 59 60 59 59 61 63 66 68 69 70 70 71 73 75 78 80 82 84 86 87 89 90 91 93 93 94 93 94 91 86 86 86 86 86 78 76 71 57 53 39 26 33 31 24 23 22 10 8 22 34 45 62 70 64 64 68 63 58 53 47 45 42 36 31 27 25 22 21 20 17 15 14
52 48 47 48 51 55 60 64 66 66 65 63 61 60 60 60 60 61 62 64 67 69 70 71 72 72 73 75 78 80 82 83 84 85 86 87 88 89 90 90 92 96 96 92 85 83 83 78 72 65 45 37 32 33 35 30 21 16 16 9 17 43 58 68 75 79 75 68 66 62 58 57 51 44 40 36 31 29 26 24 24 23 19 15 10
54 51 48 49 50 53 57 62 65 66 66 65 64 62 60 60 61 61 62 62 64 67 69 71 73 73 72 73 74 76 78 80 81 82 83 84 86 87 89 91 91 90 87 86 84 81 78 70 69 69 55 33 9 20 20 16 15 14 27 32 48 70 76 80 82 82 81 71 65 59 54 56 55 47 42 38 33 31 29 29 28 25 20 17 12
57 55 52 51 51 54 55 60 65 66 66 66 65 64 62 60 60 61 61 62 62 64 66 68 70 71 71 71 72 73 74 76 78 79 81 82 84 86 86 88 90 87 81 80 78 72 66 57 51 50 47 31 10 12 13 20 32 37 47 53 68 81 77 77 81 82 83 77 66 57 49 50 51 50 48 44 37 30 31 36 36 29 20 17 14
60 59 58 55 52 54 55 57 62 65 66 67 66 65 64 62 60 60 60 61 61 62 63 65 67 70 71 70 70 70 71 72 74 76 77 78 79 79 80 79 81 81 76 71 67 61 56 51 46 40 32 24 23 23 21 27 39 47 59 63 68 84 84 77 79 82 83 76 65 59 55 51 46 49 51 48 42 34 32 38 40 33 23 19 16
64 62 61 59 55 54 55 56 58 63 65 66 67 66 66 65 63 61 59 60 61 60 61 62 64 67 69 70 71 70 70 70 71 72 73 74 74 74 74 73 72 72 69 64 60 55 50 44 41 41 29 22 25 26 29 34 41 49 61 62 67 86 90 86 79 71 68 63 58 59 59 56 49 52 58 54 46 38 34 34 35 32 30 29 23
69 64 62 62 59 54 54 55 56 59 63 65 67 67 66 66 66 63 60 59 60 60 60 61 62 64 66 69 72 72 72 72 71 71 71 71 72 72 71 72 71 70 67 63 59 53 49 43 40 40 29 28 31 32 41 46 46 51 64 68 71 82 88 85 72 58 57 55 54 57 60 58 53 51 57 57 44 36 35 35 34 30 29 30 22
79 69 63 61 61 58 54 55 55 55 58 62 65 68 69 68 68 66 62 59 58 59 60 60 61 62 64 67 69 73 74 74 74 72 73 72 72 73 72 73 74 74 72 69 69 66 60 56 50 46 39 40 44 45 50 54 54 60 71 75 72 77 83 76 63 52 49 50 53 58 58 58 57 55 55 54 44 36 36 33 32 27 22 22 17
94 77 66 59 60 60 57 54 54 54 54 57 60 65 69 70 70 69 65 62 58 57 58 59 60 61 63 65 67 71 73 75 76 76 76 76 76 76 77 77 78 80 82 81 79 74 69 67 62 56 51 50 53 52 55 60 63 65 72 75 74 75 76 64 56 52 46 44 50 55 56 56 58 61 60 54 45 44 44 35 30 26 20 18 17
125 90 73 60 56 60 60 56 53 54 54 53 55 59 65 68 71 70 67 65 59 56 58 58 59 60 61 64 66 68 72 74 77 78 78 79 80 80 81 81 82 83 84 84 81 79 74 73 70 66 62 61 61 60 62 63 66 69 72 74 75 75 78 73 63 59 53 48 48 49 52 53 56 58 56 51 46 48 49 38 26 23 18 16 15
168 123 87 64 51 55 59 59 55 53 53 52 51 53 59 64 69 70 69 68 57 55 60 59 59 60 60 62 64 66 69 71 75 77 79 80 81 82 83 83 84 84 84 84 83 82 78 75 73 70 67 66 65 64 65 65 66 68 68 70 74 76 82 83 75 65 57 52 49 47 46 46 52 53 48 50 50 42 42 39 24 14 13 15 17
191 181 131 77 38 44 53 59 59 57 54 52 50 51 54 58 64 66 66 68 58 57 65 63 59 60 59 60 61 62 64 66 69 72 74 77 79 81 82 82 84 84 85 84 83 81 78 75 73 71 70 69 67 67 66 67 66 65 65 66 68 70 73 76 76 69 62 57 53 54 54 47 45 47 47 49 46 34 36 37 19 11 17 18 18
199 203 201 194 294 5 36 51 60 61 60 56 53 53 53 54 62 66 63 65 65 62 65 65 65 63 61 60 59 59 60 61 63 65 67 69 73 76 78 80 83 83 82 82 81 80 78 76 73 72 71 69 68 67 66 66 66 63 63 64 64 64 64 66 68 65 61 60 59 57 57 54 43 39 41 41 42 41 38 35 26 22 23 21 23
208 210 217 222 246 281 336 18 50 60 64 64 59 59 58 56 62 67 63 61 63 64 61 60 67 68 64 62 60 57 57 57 59 60 61 63 66 70 73 76 80 80 79 78 78 78 77 75 73 71 70 69 68 66 64 64 65 64 63 65 65 64 64 64 66 68 64 64 66 61 54 54 48 36 38 43 44 42 39 40 38 31 26 26 32
Height
10966 10966 10965 10964 10965 10966 10967 10967 10968 10968 10968 10967 10966 10965 10966 10966 10965 10963 10960 10958 10959 10960 10962 10964 10965 10967 10969 10970 10970 10970 10969 10967 10966 10965 10965 10964 10964 10963 10962 10962 10961 10960 10960 10959 10959 10959 10959 10958 10958 10958 10958 10958 10957 10957 10957 10956 10956 10956 10956 10956 10956 10956 10956 10955 10955 10955 10955 10954 10953 10953 10952 10951 10950 10950 10949 10948 10947 10946 10944 10943 10941 10940 10938 10937 10935
10967 10966 10965 10964 10964 10965 10966 10966 10966 10966 10966 10966 10966 10965 10965 10966 10965 10964 10963 10961 10961 10961 10963 10964 10965 10967 10969 10970 10970 10969 10968 10967 10966 10966 10965 10965 10965 10965 10964 10963 10962 10962 10961 10961 10960 10960 10960 10960 10960 10959 10959 10959 10958 10958 10958 10958 10958 10957 10957 10957 10956 10956 10956 10956 10955 10955 10955 10954 10953 10952 10951 10951 10950 10949 10948 10947 10946 10945 10944 10942 10940 10938 10937 10936 10934
10967 10967 10966 10965 10965 10965 10965 10965 10965 10965 10965 10965 10965 10965 10965 10966 10966 10965 10964 10962 10962 10962 10963 10964 10966 10968 10969 10970 10970 10969 10968 10967 10966 10967 10966 10966 10966 10966 10965 10964 10964 10963 10963 10962 10961 10961 10961 10961 10961 10960 10960 10960 10960 10959 10959 10959 10959 10958 10958 10957 10957 10957 10956 10956 10955 10955 10954 10954 10953 10952 10951 10950 10950 10949 10948 10947 10946 10944 10942 10941 10939 10938 10936 10935 10934
10968 10967 10967 10966 10965 10965 10964 10964 10964 10964 10965 10965 10965 10966 10966 10966 10966 10966 10965 10963 10962 10963 10964 10966 10967 10968 10968 10969 10969 10968 10968 10967 10967 10967 10967 10967 10967 10967 10967 10967 10966 10965 10964 10963 10962 10961 10961 10961 10961 10961 10961 10961 10961 10960 10960 10960 10960 10960 10959 10958 10957 10957 10957 10956 10956 10955 10954 10954 10953 10952 10951 10950 10949 10948 10947 10946 10945 10943 10941 10940 10938 10937 10935 10934 10933
10969 10968 10968 10967 10966 10966 10965 10965 10964 10964 10964 10965 10966 10966 10967 10967 10966 10966 10965 10964 10963 10964 10965 10967 10967 10967 10967 10968 10969 10968 10968 10967 10967 10967 10968 10968 10968 10969 10969 10969 10968 10967 10966 10965 10963 10962 10961 10961 10961 10962 10962 10962 10962 10962 10961 10961 10961 10960 10960 10959 10958 10958 10957 10957 10956 10955 10954 10954 10953 10952 10951 10950 10949 10948 10947 10945 10944 10942 10940 10939 10937 10936 10935 10933 10932
10970 10969 10968 10968 10967 10967 10967 10966 10965 10965 10965 10966 10966 10967 10967 10967 10967 10966 10966 10965 10965 10965 10967 10968 10968 10968 10968 10969 10969 10968 10967 10967 10967 10968 10969 10969 10969 10969 10969 10970 10969 10968 10967 10966 10965 10963 10962 10961 10962 10962 10963 10963 10963 10963 10963 10962 10961 10961 10960 10959 10959 10958 10958 10957 10955 10954 10954 10953 10952 10952 10951 10950 10948 10947 10946 10944 10942 10941 10939 10938 10937 10935 10934 10933 10931
10970 10970 10969 10969 10968 10968 10967 10967 10967 10967 10967 10967 10967 10967 10967 10967 10967 10967 10966 10966 10966 10966 10968 10968 10968 10968 10968 10969 10969 10968 10967 10967 10968 10969 10970 10970 10970 10969 10969 10970 10969 10968 10967 10966 10965 10965 10963 10963 10963 10963 10964 10964 10964 10964 10963 10962 10962 10961 10961 10960 10959 10959 10957 10956 10955 10954 10954 10953 10952 10951 10950 10949 10947 10946 10944 10943 10942 10940 10939 10938 10936 10935 10934 10932 10930
10971 10970 10970 10969 10969 10969 10968 10968 10968 10969 10969 10968 10968 10968 10968 10968 10968 10967 10967 10967 10967 10968 10968 10968 10968 10968 10969 10969 10968 10968 10967 10967 10969 10970 10970 10971 10971 10970 10969 10969 10968 10968 10967 10966 10966 10965 10964 10964 10964 10964 10964 10964 10964 10964 10963 10963 10962 10962 10961 10960 10960 10959 10957 10956 10955 10954 10954 10952 10951 10950 10949 10948 10947 10945 10944 10942 10941 10940 10939 10937 10936 10934 10933 10931 10929
10973 10972 10971 10971 10971 10970 10970 10970 10969 10969 10969 10969 10968 10968 10968 10968 10968 10968 10968 10968 10968 10968 10968 10968 10968 10968 10968 10968 10968 10968 10967 10968 10969 10971 10971 10971 10971 10970 10969 10968 10968 10968 10967 10966 10966 10965 10965 10965 10965 10965 10965 10964 10964 10964 10964 10963 10963 10962 10961 10961 10960 10959 10958 10957 10956 10955 10953 10952 10951 10950 10948 10947 10946 10945 10943 10942 10941 10940 10938 10937 10935 10933 10932 10930 10929
10974 10973 10973 10973 10973 10972 10971 10970 10970 10969 10969 10968 10968 10967 10967 10967 10968 10968 10968 10969 10969 10968 10967 10967 10968 10967 10967 10968 10968 10967 10966 10968 10970 10971 10971 10971 10970 10969 10969 10968 10968 10968 10967 10967 10966 10965 10966 10966 10966 10966 10966 10965 10964 10964 10964 10964 10963 10962 10961 10960 10960 10959 10958 10957 10956 10955 10953 10952 10951 10949 10948 10947 10945 10944 10943 10942 10941 10940 10938 10936 10935 10933 10931 10930 10929
10975 10975 10975 10975 10974 10973 10972 10971 10970 10969 10969 10968 10968 10967 10967 10967 10967 10968 10968 10968 10968 10967 10967 10967 10967 10967 10967 10967 10967 10966 10967 10968 10970 10971 10971 10970 10970 10969 10969 10969 10969 10968 10968 10967 10965 10965 10966 10966 10967 10967 10967 10966 10965 10965 10965 10964 10963 10962 10961 10960 10959 10958 10958 10957 10956 10954 10953 10951 10950 10949 10948 10946 10945 10944 10943 10942 10941 10939 10938 10936 10934 10932 10931 10930 10929
10977 10976 10976 10976 10975 10974 10973 10972 10971 10970 10970 10969 10968 10968 10968 10967 10967 10968 10968 10968 10968 10967 10966 10966 10966 10966 10966 10966 10966 10966 10967 10969 10970 10970 10970 10970 10969 10969 10969 10969 10969 10968 10968 10967 10966 10966 10967 10967 10967 10968 10967 10967 10966 10966 10965 10964 10963 10963 10962 10961 10959 10958 10958 10957 10955 10954 10953 10951 10950 10949 10948 10947 10946 10945 10944 10942 10941 10939 10937 10935 10934 10933 10931 10930 10929
10977 10977 10977 10977 10976 10975 10974 10973 10972 10972 10971 10970 10970 10969 10968 10968 10968 10968 10969 10968 10968 10967 10966 10966 10966 10966 10966 10966 10966 10966 10968 10969 10969 10970 10970 10970 10970 10970 10970 10969 10969 10969 10969 10968 10967 10967 10967 10967 10968 10968 10968 10967 10967 10966 10966 10965 10964 10963 10962 10961 10960 10959 10958 10956 10955 10954 10952 10951 10950 10949 10948 10947 10946 10945 10944 10942 10940 10939 10937 10935 10934 10933 10932 10930 10929
10978 10978 10978 10978 10977 10976 10975 10974 10974 10973 10972 10972 10971 10970 10969 10968 10968 10969 10969 10969 10967 10966 10966 10966 10967 10967 10967 10966 10966 10967 10968 10969 10969 10969 10970 10970 10970 10971 10971 10970 10970 10970 10970 10969 10968 10968 10968 10968 10968 10968 10968 10968 10968 10967 10966 10965 10964 10963 10962 10961 10960 10959 10957 10956 10955 10954 10953 10952 10951 10950 10949 10948 10947 10945 10944 10942 10940 10939 10937 10935 10934 10933 10932 10931 10930
10980 10979 10979 10979 10978 10977 10976 10976 10975 10974 10973 10972 10971 10969 10968 10968 10969 10970 10969 10968 10966 10966 10966 10967 10968 10967 10967 10967 10966 10967 10968 10970 10970 10969 10969 10970 10971 10971 10971 10971 10971 10971 10971 10971 10969 10969 10969 10969 10969 10969 10969 10969 10968 10967 10967 10966 10965 10964 10962 10961 10960 10959 10957 10956 10955 10954 10953 10952 10952 10951 10949 10948 10947 10945 10944 10942 10940 10939 10937 10935 10934 10933 10932 10931 10930
10981 10981 10981 10980 10979 10979 10978 10977 10976 10975 10974 10972 10969 10966 10966 10967 10969 10969 10968 10966 10965 10966 10967 10968 10967 10967 10967 10967 10967 10967 10968 10970 10970 10970 10970 10970 10971 10971 10971 10971 10972 10972 10971 10971 10970 10970 10970 10970 10970 10970 10969 10969 10969 10968 10967 10966 10965 10964 10962 10961 10960 10959 10957 10957 10956 10955 10954 10953 10952 10951 10950 10949 10947 10945 10944 10942 10940 10939 10937 10936 10935 10934 10933 10932 10929
10983 10983 10983 10982 10981 10980 10979 10978 10977 10976 10974 10971 10966 10964 10965 10968 10969 10968 10967 10965 10965 10966 10967 10967 10966 10966 10967 10968 10967 10967 10969 10970 10969 10970 10970 10971 10971 10971 10971 10972 10972 10972 10972 10972 10970 10971 10971 10971 10970 10970 10970 10969 10969 10968 10967 10966 10965 10964 10963 10962 10960 10959 10958 10957 10957 10956 10955 10954 10953 10952 10951 10949 10947 10946 10944 10943 10941 10939 10937 10936 10935 10934 10933 10931 10929
10983 10984 10984 10983 10982 10981 10979 10978 10978 10977 10974 10968 10964 10963 10965 10968 10969 10968 10965 10964 10964 10965 10966 10966 10965 10965 10967 10968 10967 10967 10969 10969 10969 10970 10970 10970 10971 10972 10972 10972 10972 10972 10972 10972 10972 10972 10972 10971 10971 10970 10970 10970 10969 10968 10967 10966 10965 10964 10963 10962 10960 10959 10959 10958 10957 10957 10956 10955 10954 10953 10951 10950 10948 10946 10945 10943 10941 10939 10938 10937 10936 10934 10933 10931 10929
10984 10984 10984 10984 10983 10982 10981 10979 10979 10978 10974 10968 10964 10964 10965 10966 10968 10967 10965 10963 10963 10965 10965 10964 10963 10964 10966 10967 10967 10968 10970 10970 10969 10970 10970 10970 10971 10972 10972 10972 10972 10973 10972 10972 10972 10973 10972 10971 10971 10971 10970 10970 10969 10968 10967 10966 10965 10964 10963 10962 10961 10960 10960 10959 10959 10958 10956 10956 10954 10953 10952 10950 10948 10947 10945 10944 10942 10940 10938 10937 10936 10935 10933 10931 10929
10985 10985 10985 10984 10983 10982 10981 10980 10980 10979 10976 10970 10964 10963 10964 10965 10966 10966 10963 10961 10962 10964 10965 10964 10963 10963 10965 10967 10967 10968 10970 10970 10969 10969 10970 10971 10971 10972 10973 10973 10973 10973 10973 10973 10973 10973 10972 10972 10971 10971 10971 10970 10969 10968 10967 10966 10965 10964 10963 10962 10962 10961 10961 10960 10960 10958 10957 10956 10955 10954 10952 10951 10949 10948 10946 10944 10942 10940 10939 10938 10936 10935 10933 10931 10929
10987 10986 10985 10984 10983 10982 10982 10981 10981 10981 10979 10973 10966 10962 10962 10963 10964 10964 10961 10959 10961 10964 10965 10964 10963 10963 10965 10966 10967 10969 10971 10970 10969 10969 10970 10970 10971 10972 10973 10974 10974 10974 10974 10973 10973 10973 10972 10972 10972 10971 10971 10970 10970 10969 10968 10967 10966 10965 10964 10963 10963 10962 10962 10961 10960 10959 10958 10957 10956 10954 10953 10951 10950 10948 10947 10945 10943 10941 10939 10938 10937 10935 10933 10931 10929
10988 10987 10986 10985 10984 10984 10983 10983 10983 10982 10980 10975 10969 10963 10960 10961 10962 10962 10960 10959 10960 10963 10964 10963 10963 10964 10965 10965 10966 10969 10971 10971 10970 10970 10970 10970 10971 10972 10973 10974 10975 10975 10974 10974 10974 10973 10972 10972 10972 10971 10971 10970 10970 10969 10968 10967 10966 10965 10964 10964 10964 10963 10963 10962 10961 10960 10959 10958 10957 10955 10953 10952 10951 10949 10947 10945 10943 10941 10940 10938 10937 10935 10933 10931 10929
10990 10988 10987 10986 10985 10985 10984 10984 10983 10983 10982 10978 10974 10968 10962 10962 10963 10962 10960 10959 10961 10962 10963 10962 10963 10963 10964 10965 10966 10969 10970 10970 10970 10971 10971 10970 10971 10972 10973 10974 10975 10975 10975 10974 10974 10973 10973 10972 10972 10972 10971 10971 10970 10969 10968 10967 10966 10965 10965 10965 10964 10964 10963 10963 10962 10961 10960 10959 10957 10956 10954 10953 10951 10950 10948 10945 10943 10942 10940 10939 10937 10935 10933 10931 10929
10992 10990 10989 10988 10987 10986 10986 10985 10984 10984 10983 10980 10978 10974 10967 10963 10963 10963 10961 10960 10961 10962 10962 10962 10962 10963 10964 10965 10966 10967 10969 10970 10970 10971 10971 10971 10971 10972 10973 10974 10975 10975 10975 10974 10974 10974 10973 10972 10972 10972 10972 10971 10971 10969 10969 10968 10967 10966 10966 10966 10965 10965 10965 10964 10963 10962 10961 10960 10958 10956 10955 10953 10952 10950 10948 10946 10944 10942 10941 10939 10937 10935 10933 10932 10930
10994 10993 10991 10990 10989 10988 10987 10987 10985 10984 10983 10982 10979 10976 10970 10964 10962 10963 10962 10961 10961 10962 10962 10962 10963 10963 10965 10965 10965 10966 10967 10968 10970 10971 10971 10971 10971 10972 10973 10973 10974 10974 10974 10975 10974 10974 10974 10973 10974 10974 10972 10971 10971 10970 10969 10968 10967 10967 10967 10967 10966 10966 10966 10965 10964 10963 10962 10960 10959 10957 10955 10954 10952 10951 10949 10946 10945 10943 10941 10939 10937 10936 10934 10932 10930
10996 10995 10993 10992 10991 10990 10989 10988 10987 10987 10986 10985 10982 10978 10974 10970 10967 10965 10962 10962 10962 10963 10963 10963 10963 10964 10964 10965 10965 10965 10966 10966 10968 10970 10971 10971 10971 10972 10973 10973 10974 10974 10975 10975 10975 10975 10975 10975 10976 10974 10973 10972 10971 10970 10970 10969 10968 10968 10968 10968 10967 10967 10966 10965 10965 10964 10962 10961 10959 10957 10956 10954 10953 10951 10949 10947 10945 10944 10941 10940 10938 10936 10935 10933 10931
10998 10997 10996 10994 10993 10992 10991 10990 10989 10989 10988 10987 10985 10981 10978 10975 10973 10969 10966 10964 10963 10964 10965 10965 10964 10964 10964 10964 10965 10965 10965 10966 10967 10969 10970 10971 10971 10972 10973 10974 10974 10975 10976 10977 10977 10977 10977 10977 10976 10974 10973 10972 10972 10971 10970 10969 10969 10969 10968 10968 10968 10968 10967 10967 10965 10964 10963 10961 10960 10958 10956 10955 10954 10952 10950 10948 10946 10944 10942 10940 10939 10937 10935 10934 10932
11000 10999 10997 10996 10995 10994 10992 10991 10990 10989 10988 10987 10985 10983 10980 10978 10976 10973 10971 10968 10964 10963 10965 10966 10966 10967 10966 10965 10966 10965 10965 10966 10967 10968 10969 10971 10972 10973 10973 10974 10975 10976 10977 10978 10978 10978 10977 10977 10975 10974 10973 10973 10972 10972 10970 10970 10969 10969 10969 10969 10969 10969 10968 10967 10966 10965 10963 10962 10960 10959 10957 10956 10955 10953 10951 10949 10947 10945 10943 10941 10940 10938 10936 10935 10933
11002 11001 10999 10998 10997 10995 10994 10992 10991 10989 10988 10987 10985 10983 10981 10979 10977 10975 10974 10971 10966 10965 10965 10965 10966 10967 10967 10966 10966 10966 10965 10966 10967 10969 10970 10972 10973 10974 10974 10975 10976 10976 10977 10978 10978 10977 10976 10976 10975 10974 10974 10974 10973 10972 10971 10970 10970 10970 10970 10970 10970 10969 10969 10968 10967 10965 10964 10963 10961 10960 10958 10957 10955 10954 10952 10950 10948 10946 10944 10943 10941 10939 10938 10936 10934
11005 11003 11001 11000 10998 10997 10995 10994 10992 10990 10988 10987 10985 10983 10982 10980 10979 10977 10975 10972 10969 10968 10966 10965 10965 10966 10966 10967 10966 10966 10966 10967 10968 10970 10971 10973 10974 10975 10975 10975 10975 10976 10977 10977 10977 10976 10976 10975 10975 10975 10975 10974 10973 10972 10972 10972 10971 10971 10971 10971 10971 10970 10970 10969 10967 10966 10965 10963 10962 10960 10959 10958 10956 10955 10953 10951 10949 10947 10945 10944 10942 10940 10939 10937 10936
11007 11005 11003 11002 11000 10998 10996 10995 10993 10991 10989 10988 10986 10984 10983 10981 10980 10978 10977 10974 10972 10971 10969 10967 10967 10966 10966 10967 10967 10967 10968 10968 10969 10970 10972 10973 10974 10975 10976 10975 10976 10976 10977 10978 10977 10977 10976 10976 10976 10975 10975 10974 10973 10973 10973 10973 10972 10972 10972 10972 10971 10971 10971 10970 10968 10967 10965 10964 10963 10961 10960 10959 10957 10956 10954 10952 10950 10948 10947 10945 10944 10942 10941 10939 10937
11010 11008 11005 11003 11002 11000 10998 10996 10995 10993 10991 10989 10987 10985 10984 10983 10982 10980 10978 10977 10975 10973 10972 10970 10969 10969 10968 10969 10969 10969 10969 10970 10970 10971 10972 10973 10974 10975 10976 10976 10976 10977 10977 10978 10978 10978 10977 10977 10977 10976 10975 10974 10974 10974 10974 10974 10973 10973 10973 10972 10972 10972 10971 10970 10969 10967 10966 10964 10963 10962 10961 10960 10959 10957 10956 10954 10952 10950 10948 10947 10945 10943 10942 10940 10939
11012 11010 11007 11005 11003 11002 11000 10998 10996 10994 10993 10991 10989 10987 10986 10984 10983 10982 10980 10979 10977 10976 10974 10973 10972 10972 10971 10971 10972 10972 10972 10972 10972 10973 10973 10974 10975 10975 10976 10977 10977 10978 10978 10978 10978 10978 10978 10978 10977 10976 10976 10975 10975 10975 10975 10975 10974 10974 10974 10973 10973 10972 10972 10971 10969 10968 10966 10965 10964 10963 10962 10961 10960 10959 10957 10955 10954 10952 10950 10948 10947 10945 10943 10942 10940
11013 11012 11010 11007 11005 11003 11001 10999 10998 10996 10995 10993 10991 10990 10988 10987 10985 10984 10983 10981 10980 10978 10976 10975 10974 10974 10974 10974 10974 10974 10974 10974 10974 10974 10974 10975 10975 10976 10976 10977 10977 10978 10978 10979 10979 10979 10979 10978 10978 10977 10977 10977 10977 10977 10976 10976 10975 10975 10974 10974 10973 10973 10972 10971 10970 10968 10967 10966 10966 10964 10963 10962 10961 10960 10959 10957 10955 10954 10952 10950 10948 10947 10945 10943 10942
11015 11014 11012 11009 11007 11005 11003 11001 10999 10998 10997 10995 10994 10992 10990 10989 10988 10986 10985 10984 10982 10981 10979 10978 10977 10976 10976 10976 10976 10976 10976 10976 10976 10976 10976 10976 10976 10977 10977 10978 10978 10979 10980 10980 10980 10980 10979 10979 10979 10979 10978 10978 10978 10978 10977 10977 10976 10975 10975 10974 10974 10973 10973 10972 10970 10969 10968 10968 10967 10966 10965 10964 10963 10962 10960 10959 10957 10955 10954 10952 10950 10948 10946 10945 10943
11017 11015 11013 11011 11009 11007 11005 11002 11001 11000 10999 10997 10996 10994 10993 10992 10990 10989 10987 10986 10985 10984 10982 10981 10980 10979 10978 10978 10977 10977 10977 10978 10978 10978 10979 10978 10978 10978 10979 10979 10980 10981 10981 10981 10981 10980 10980 10981 10981 10980 10980 10979 10979 10979 10978 10978 10977 10976 10975 10975 10974 10974 10973 10972 10971 10970 10969 10968 10968 10967 10966 10965 10964 10963 10962 10960 10958 10957 10955 10954 10952 10950 10948 10946 10945
11019 11017 11015 11013 11011 11009 11007 11004 11003 11001 11000 10999 10998 10997 10995 10994 10993 10991 10990 10989 10987 10986 10985 10984 10983 10982 10981 10980 10980 10979 10979 10979 10979 10980 10980 10980 10980 10980 10980 10981 10982 10982 10981 10981 10982 10982 10982 10982 10981 10981 10981 10980 10979 10979 10979 10978 10977 10977 10976 10976 10975 10974 10973 10972 10971 10970 10969 10969 10968 10968 10967 10966 10965 10964 10963 10962 10960 10958 10957 10955 10953 10951 10949 10948 10946
11021 11019 11017 11015 11013 11011 11009 11007 11005 11003 11002 11001 11000 10999 10998 10996 10995 10994 10992 10991 10990 10989 10988 10987 10986 10985 10984 10983 10983 10982 10982 10981 10981 10981 10981 10981 10981 10982 10982 10982 10983 10983 10982 10983 10984 10984 10983 10983 10982 10982 10981 10981 10981 10980 10979 10979 10978 10978 10977 10976 10975 10974 10974 10973 10972 10971 10970 10970 10969 10969 10968 10967 10966 10965 10964 10963 10961 10959 10957 10956 10955 10953 10951 10949 10947
11022 11021 11019 11017 11015 11013 11011 11009 11007 11006 11004 11003 11002 11001 11000 10999 10997 10996 10995 10994 10993 10991 10990 10989 10990 10989 10988 10986 10986 10985 10984 10983 10983 10983 10983 10983 10983 10983 10983 10983 10984 10984 10983 10984 10984 10984 10984 10983 10983 10983 10982 10982 10982 10981 10980 10980 10979 10979 10978 10977 10976 10975 10974 10973 10972 10971 10971 10971 10970 10970 10969 10968 10967 10966 10965 10964 10962 10960 10958 10957 10956 10954 10952 10951 10949
11024 11022 11021 11019 11017 11015 11013 11011 11009 11008 11007 11005 11004 11003 11002 11001 11000 10999 10997 10996 10995 10994 10993 10992 10992 10991 10990 10989 10988 10987 10986 10985 10985 10984 10985 10985 10985 10985 10985 10986 10985 10985 10984 10985 10985 10986 10985 10985 10985 10985 10984 10983 10983 10982 10981 10980 10980 10979 10978 10977 10976 10975 10974 10973 10972 10972 10972 10972 10971 10971 10970 10968 10967 10967 10965 10965 10964 10961 10959 10958 10957 10955 10954 10953 10951
11025 11024 11023 11021 11019 11018 11016 11013 11011 11010 11009 11008 11007 11005 11004 11003 11002 11001 11000 10999 10997 10996 10995 10994 10993 10992 10991 10991 10990 10989 10988 10988 10987 10987 10987 10987 10988 10988 10988 10988 10987 10987 10987 10987 10988 10988 10987 10987 10987 10986 10986 10985 10984 10983 10982 10981 10980 10979 10978 10977 10976 10976 10975 10974 10973 10973 10973 10972 10972 10971 10970 10968 10967 10967 10966 10965 10964 10963 10960 10959 10958 10957 10956 10954 10952
11027 11025 11024 11023 11021 11019 11018 11016 11014 11012 11011 11010 11009 11008 11006 11005 11004 11004 11002 11001 11000 10998 10997 10996 10995 10994 10993 10992 10991 10991 10990 10990 10990 10989 10989 10990 10990 10990 10990 10990 10990 10990 10990 10990 10989 10989 10989 10989 10989 10988 10987 10986 10985 10984 10983 10982 10981 10980 10979 10978 10977 10976 10976 10975 10974 10974 10974 10973 10972 10972 10971 10969 10968 10967 10966 10965 10965 10963 10962 10960 10959 10958 10957 10955 10952
11028 11027 11026 11025 11023 11022 11020 11018 11016 11014 11013 11012 11011 11010 11009 11008 11007 11007 11005 11003 11002 11001 11000 10998 10997 10996 10995 10994 10993 10993 10992 10992 10992 10992 10992 10992 10992 10992 10992 10992 10992 10992 10992 10991 10991 10991 10991 10990 10990 10989 10987 10986 10985 10984 10983 10982 10981 10981 10980 10979 10978 10977 10976 10976 10975 10975 10975 10974 10974 10973 10972 10970 10969 10968 10967 10966 10965 10964 10963 10962 10960 10959 10957 10954 10952
11029 11028 11027 11026 11025 11024 11022 11020 11018 11016 11015 11014 11013 11012 11011 11010 11009 11009 11008 11006 11005 11004 11002 11001 11000 10999 10998 10997 10996 10995 10995 10994 10994 10994 10993 10993 10993 10993 10993 10993 10993 10993 10993 10993 10993 10992 10992 10991 10990 10989 10988 10987 10985 10984 10983 10982 10982 10981 10980 10980 10979 10978 10977 10977 10977 10976 10976 10975 10975 10973 10973 10971 10970 10969 10968 10967 10966 10965 10964 10964 10962 10960 10957 10955 10953
11030 11029 11029 11028 11027 11026 11024 11023 11021 11019 11018 11017 11015 11015 11014 11012 11012 11011 11010 11009 11008 11007 11005 11004 11003 11002 11001 11000 10998 10998 10997 10996 10996 10995 10995 10995 10995 10995 10995 10995 10995 10995 10995 10995 10994 10993 10992 10991 10990 10990 10989 10988 10986 10985 10984 10983 10982 10982 10981 10980 10980 10980 10979 10978 10978 10977 10977 10976 10975 10974 10973 10972 10971 10970 10969 10969 10968 10967 10966 10965 10963 10961 10960 10958 10955
11031 11030 11030 11030 11029 11027 11026 11025 11023 11022 11020 11019 11018 11017 11016 11014 11014 11013 11012 11012 11011 11010 11009 11008 11006 11005 11004 11003 11002 11001 11000 10999 10998 10998 10997 10997 10997 10996 10996 10996 10996 10996 10996 10996 10995 10994 10993 10992 10991 10990 10989 10988 10986 10985 10984 10984 10983 10982 10982 10981 10981 10981 10980 10980 10979 10978 10977 10977 10976 10975 10974 10973 10972 10972 10971 10970 10969 10968 10967 10966 10964 10963 10961 10959 10957
11031 11031 11030 11030 11030 11029 11028 11027 11026 11024 11023 11022 11021 11020 11018 11017 11016 11015 11015 11014 11014 11013 11012 11011 11010 11009 11007 11006 11005 11004 11003 11002 11001 11000 11000 10999 10999 10998 10998 10998 10997 10997 10997 10996 10995 10995 10994 10992 10991 10990 10989 10988 10987 10986 10985 10984 10984 10983 10983 10982 10981 10981 10981 10981 10980 10979 10978 10978 10977 10976 10975 10974 10973 10973 10972 10972 10970 10969 10969 10968 10966 10964 10962 10960 10958
11031 11031 11031 11031 11031 11030 11030 11029 11028 11027 11025 11024 11023 11022 11021 11019 11018 11018 11017 11016 11017 11016 11016 11015 11014 11012 11011 11009 11008 11007 11006 11005 11004 11003 11002 11001 11001 11000 11000 10999 10999 10998 10998 10997 10996 10996 10995 10993 10992 10991 10990 10989 10988 10986 10986 10985 10984 10984 10983 10982 10982 10982 10981 10981 10980 10979 10979 10978 10978 10977 10976 10976 10975 10974 10973 10972 10972 10971 10970 10969 10967 10965 10963 10962 10959
11032 11031 11031 11031 11031 11031 11031 11030 11030 11029 11028 11027 11026 11025 11024 11022 11021 11020 11019 11018 11019 11020 11019 11018 11017 11016 11014 11013 11011 11010 11009 11008 11007 11006 11005 11004 11003 11002 11002 11001 11000 11000 10999 10998 10997 10996 10995 10994 10993 10992 10991 10990 10988 10987 10986 10986 10985 10985 10984 10983 10982 10982 10981 10981 10980 10980 10979 10979 10978 10978 10978 10977 10976 10975 10974 10974 10973 10973 10972 10971 10969 10967 10965 10963 10961
11032 11032 11032 11032 11032 11032 11031 11031 11031 11030 11029 11029 11028 11028 11027 11026 11024 11023 11023 11023 11023 11023 11021 11021 11020 11019 11017 11016 11014 11013 11012 11011 11010 11009 11008 11007 11006 11005 11004 11003 11002 11002 11001 11000 10999 10998 10997 10996 10995 10993 10992 10991 10990 10989 10988 10987 10986 10986 10985 10984 10983 10983 10982 10981 10981 10980 10980 10980 10980 10980 10980 10979 10978 10978 10977 10976 10975 10975 10974 10973 10971 10970 10968 10966 10964
11031 11032 11032 11032 11032 11032 11032 11032 11032 11031 11031 11030 11030 11030 11029 11028 11027 11026 11028 11028 11027 11025 11024 11023 11022 11021 11019 11018 11017 11016 11014 11013 11012 11011 11010 11009 11008 11008 11007 11006 11005 11004 11003 11002 11001 11000 10999 10998 10996 10995 10994 10993 10992 10991 10990 10989 10988 10987 10986 10985 10984 10984 10983 10982 10982 10981 10981 10981 10981 10982 10983 10982 10981 10980 10979 10978 10977 10976 10976 10976 10975 10972 10970 10968 10966